Regional Weather Roundup
Issued by NWS

Home | Current Version | Previous Version | Text Only | Print | Product List | Glossary Off
Versions: 1 2 3 4 5 6 7 8 9 10 11 12 13 14 15 16 17 18 19 20 21 22 23 24 25 26 27 28 29 30 31 32 33 34 35 36 37 38 39 40 41 42 43 44 45 46 47 48 49 50

000
ASUS43 KLMK 190210
RWRKY
KENTUCKY REGIONAL WEATHER ROUNDUP
NATIONAL WEATHER SERVICE LOUISVILLE KY
900 PM EST SAT NOV 18 2017

NOTE "FAIR" INDICATES FEW OR NO CLOUDS BELOW 12,000 FEET
WITH NO SIGNIFICANT WEATHER AND/OR OBSTRUCTIONS TO VISIBILITY.

KYZ001>023-026-027-061>063-070>075-190300-
WESTERN AND SOUTH CENTRAL KENTUCKY

CITY           SKY/WX    TMP DP  RH WIND       PRES   REMARKS
PADUCAH        CLOUDY    46  38  73 NW14G22   29.91R
HENDERSON      CLOUDY    42  39  89 W14       29.84R
OWENSBORO      LGT RAIN  41  37  86 NW22      29.82R
HOPKINSVILLE   CLOUDY    42  37  79 NW23G31   29.85R
BOWLING GREEN  CLOUDY    44  41  89 NW16G28   29.78R
GLASGOW        CLOUDY    41  41 100 NW14G24   29.73R
$$

KYZ024-025-028>034-038-045-046-053-190300-
NORTH CENTRAL KENTUCKY

CITY           SKY/WX    TMP DP  RH WIND       PRES   REMARKS
LOUISVILLE/SDF LGT RAIN  44  39  82 NW20G36   29.67R
LOUISVILLE/LOU LGT RAIN  44  40  85 NW18G31   29.67R
FORT KNOX      CLOUDY    41  39  90 W14G30    29.68R
$$

KYZ035>037-039>044-047>052-055>060-089>105-190300-
NORTHEAST KENTUCKY

CITY           SKY/WX    TMP DP  RH WIND       PRES   REMARKS
LEXINGTON      LGT RAIN  46  42  86 NW20G36   29.57R FOG
COVINGTON      CLOUDY    44  42  93 NW25G36   29.49R
FRANKFORT      CLOUDY    46  42  86 NW17G30   29.57R
$$

KYZ054-064>069-076>088-106>120-190300-
SOUTHEAST KENTUCKY

CITY           SKY/WX    TMP DP  RH WIND       PRES   REMARKS
JACKSON        RAIN      57  55  93 VRB7      29.43S FOG
LONDON         LGT RAIN  57  53  86 W24G43    29.52R
SOMERSET       CLOUDY    46  45  93 W23G39    29.64R
MIDDLESBORO    HVY RAIN  62  58  87 W16G26    29.50R
MONTICELLO     LGT RAIN  48  45  89 W32G41    29.67R FOG
$$





USA.gov is the U.S. government's official web portal to all federal, state and local government web resources and services.